• In Uzbekistan
  • List of Countries
  • For 7 days
  • Water Temperature
  • Weather Map
  • Weather Widgets
  • user-avatar
    Login

    Hourly Weather Folkern

    Today, 4 June, Thursday

    Time Temperature Precipitation Wind Pressure Humidity
    00:00 +8°C° 0.1 mm 7 mps 758 mmHg 88%
    01:00 +8°C° 0.2 mm 7 mps 757 mmHg 90%
    02:00 +9°C° 0.2 mm 7 mps 756 mmHg 92%
    03:00 +9°C° 0.2 mm 7 mps 755 mmHg 93%
    04:00 +9°C° 0.1 mm 7 mps 754 mmHg 92%
    05:00 +9°C° 0.1 mm 6 mps 754 mmHg 92%
    06:00 +9°C° 0.1 mm 6 mps 753 mmHg 91%
    07:00 +10°C° 0.1 mm 7 mps 753 mmHg 88%
    08:00 +10°C° 0.1 mm 7 mps 753 mmHg 85%
    09:00 +10°C° 0.1 mm 8 mps 753 mmHg 81%
    10:00 +10°C° 0 mm 8 mps 752 mmHg 79%
    11:00 +10°C° 0 mm 8 mps 752 mmHg 76%
    12:00 +10°C° 0 mm 9 mps 752 mmHg 73%
    13:00 +10°C° 0 mm 8 mps 752 mmHg 70%
    14:00 +10°C° 0 mm 8 mps 752 mmHg 67%
    15:00 +10°C° 0 mm 8 mps 752 mmHg 64%
    16:00 +9°C° 0 mm 8 mps 752 mmHg 65%
    17:00 +9°C° 0 mm 8 mps 752 mmHg 66%
    18:00 +9°C° 0 mm 8 mps 751 mmHg 67%
    19:00 +7°C° 0 mm 8 mps 751 mmHg 70%
    20:00 +7°C° 0 mm 8 mps 751 mmHg 73%
    21:00 +6°C° 0 mm 8 mps 751 mmHg 75%
    22:00 +6°C° 0.1 mm 8 mps 751 mmHg 76%
    23:00 +5°C° 0.1 mm 8 mps 751 mmHg 76%

    Tomorrow, 5 June, Friday

    Time Temperature Precipitation Wind Pressure Humidity
    00:00 +5°C° 0.1 mm 8 mps 751 mmHg 76%
    01:00 +5°C° 0.1 mm 8 mps 751 mmHg 78%
    02:00 +5°C° 0.1 mm 9 mps 750 mmHg 80%
    03:00 +5°C° 0.1 mm 9 mps 750 mmHg 81%
    04:00 +5°C° 0.2 mm 9 mps 749 mmHg 80%
    05:00 +5°C° 0.2 mm 10 mps 749 mmHg 79%
    06:00 +5°C° 0.2 mm 10 mps 749 mmHg 77%
    07:00 +6°C° 0.2 mm 11 mps 749 mmHg 73%
    08:00 +7°C° 0.2 mm 12 mps 749 mmHg 69%
    09:00 +7°C° 0.2 mm 13 mps 749 mmHg 64%
    10:00 +7°C° 0.2 mm 13 mps 749 mmHg 66%
    11:00 +6°C° 0.2 mm 14 mps 749 mmHg 68%
    12:00 +6°C° 0.2 mm 14 mps 748 mmHg 69%
    13:00 +6°C° 0.1 mm 15 mps 748 mmHg 72%
    14:00 +6°C° 0.1 mm 16 mps 748 mmHg 75%
    15:00 +5°C° 0.1 mm 17 mps 748 mmHg 77%
    16:00 +5°C° 0.2 mm 17 mps 747 mmHg 81%
    17:00 +5°C° 0.2 mm 18 mps 747 mmHg 84%
    18:00 +5°C° 0.2 mm 18 mps 747 mmHg 88%
    19:00 +5°C° 0.8 mm 18 mps 746 mmHg 89%
    20:00 +6°C° 0.8 mm 18 mps 746 mmHg 89%
    21:00 +6°C° 0.8 mm 18 mps 746 mmHg 90%
    22:00 +7°C° 1.1 mm 18 mps 746 mmHg 91%
    23:00 +7°C° 1.1 mm 17 mps 746 mmHg 91%

    Day after tomorrow, 6 June, Saturday

    Time Temperature Precipitation Wind Pressure Humidity
    00:00 +7°C° 1.1 mm 16 mps 745 mmHg 92%
    01:00 +7°C° 1 mm 16 mps 746 mmHg 92%
    02:00 +7°C° 1 mm 16 mps 746 mmHg 92%
    03:00 +7°C° 1 mm 16 mps 746 mmHg 92%
    04:00 +8°C° 0.6 mm 15 mps 746 mmHg 92%
    05:00 +8°C° 0.6 mm 14 mps 746 mmHg 92%
    06:00 +8°C° 0.6 mm 13 mps 746 mmHg 92%
    07:00 +9°C° 0.1 mm 12 mps 747 mmHg 89%
    08:00 +9°C° 0.1 mm 11 mps 747 mmHg 86%
    09:00 +11°C° 0.1 mm 10 mps 748 mmHg 83%
    10:00 +11°C° 0 mm 10 mps 748 mmHg 79%
    11:00 +12°C° 0 mm 9 mps 748 mmHg 75%
    12:00 +12°C° 0 mm 9 mps 749 mmHg 72%
    13:00 +12°C° 0 mm 10 mps 749 mmHg 75%
    14:00 +12°C° 0 mm 10 mps 749 mmHg 79%
    15:00 +11°C° 0 mm 11 mps 750 mmHg 83%
    16:00 +11°C° 0.3 mm 11 mps 750 mmHg 86%
    17:00 +9°C° 0.3 mm 12 mps 750 mmHg 90%
    18:00 +8°C° 0.3 mm 12 mps 751 mmHg 94%
    19:00 +8°C° 0.1 mm 12 mps 751 mmHg 92%
    20:00 +8°C° 0.1 mm 12 mps 752 mmHg 91%
    21:00 +8°C° 0.1 mm 11 mps 752 mmHg 90%
    22:00 +8°C° 0 mm 11 mps 753 mmHg 90%
    23:00 +8°C° 0 mm 11 mps 753 mmHg 89%

    7 June, Sunday

    Time Temperature Precipitation Wind Pressure Humidity
    00:00 +8°C° 0 mm 11 mps 754 mmHg 89%
    01:00 +8°C° 0 mm 11 mps 754 mmHg 89%
    02:00 +8°C° 0 mm 10 mps 755 mmHg 89%
    03:00 +7°C° 0 mm 10 mps 755 mmHg 88%
    04:00 +7°C° 0.1 mm 10 mps 756 mmHg 87%
    05:00 +7°C° 0.1 mm 10 mps 756 mmHg 86%
    06:00 +7°C° 0.1 mm 10 mps 757 mmHg 84%
    07:00 +8°C° 0.1 mm 10 mps 757 mmHg 84%
    08:00 +8°C° 0.1 mm 10 mps 758 mmHg 83%
    09:00 +8°C° 0.1 mm 10 mps 759 mmHg 82%
    10:00 +8°C° 0 mm 9 mps 759 mmHg 79%
    11:00 +8°C° 0 mm 9 mps 760 mmHg 77%
    12:00 +10°C° 0 mm 9 mps 760 mmHg 75%
    13:00 +10°C° 0 mm 9 mps 761 mmHg 74%
    14:00 +10°C° 0 mm 9 mps 761 mmHg 73%
    15:00 +10°C° 0 mm 9 mps 761 mmHg 72%
    16:00 +8°C° 0 mm 9 mps 762 mmHg 75%
    17:00 +8°C° 0 mm 9 mps 762 mmHg 78%
    18:00 +7°C° 0 mm 9 mps 763 mmHg 81%
    19:00 +7°C° 0 mm 9 mps 763 mmHg 80%
    20:00 +7°C° 0 mm 9 mps 764 mmHg 80%
    21:00 +6°C° 0 mm 9 mps 764 mmHg 79%
    22:00 +6°C° 0 mm 9 mps 765 mmHg 78%
    23:00 +6°C° 0 mm 8 mps 765 mmHg 76%

    8 June, Monday

    Time Temperature Precipitation Wind Pressure Humidity
    00:00 +6°C° 0 mm 8 mps 765 mmHg 75%
    01:00 +6°C° 0 mm 8 mps 765 mmHg 74%
    02:00 +5°C° 0 mm 8 mps 765 mmHg 74%
    03:00 +5°C° 0 mm 8 mps 766 mmHg 74%
    04:00 +5°C° 0 mm 8 mps 766 mmHg 74%
    05:00 +6°C° 0 mm 8 mps 766 mmHg 74%
    06:00 +6°C° 0 mm 8 mps 766 mmHg 73%
    07:00 +6°C° 0 mm 7 mps 766 mmHg 73%
    08:00 +8°C° 0 mm 7 mps 767 mmHg 72%
    09:00 +8°C° 0 mm 6 mps 767 mmHg 71%
    10:00 +9°C° 0 mm 6 mps 767 mmHg 68%
    11:00 +9°C° 0 mm 6 mps 767 mmHg 66%
    12:00 +10°C° 0 mm 5 mps 767 mmHg 63%
    13:00 +10°C° 0 mm 5 mps 767 mmHg 63%
    14:00 +11°C° 0 mm 4 mps 767 mmHg 63%
    15:00 +11°C° 0 mm 4 mps 767 mmHg 62%
    16:00 +11°C° 0 mm 4 mps 767 mmHg 64%
    17:00 +11°C° 0 mm 4 mps 767 mmHg 66%
    18:00 +10°C° 0 mm 4 mps 767 mmHg 67%
    19:00 +8°C° 0 mm 4 mps 767 mmHg 71%
    20:00 +8°C° 0 mm 4 mps 767 mmHg 75%
    21:00 +8°C° 0 mm 3 mps 767 mmHg 79%
    22:00 +8°C° 0 mm 3 mps 767 mmHg 78%
    23:00 +7°C° 0 mm 4 mps 767 mmHg 76%

    9 June, Tuesday

    Time Temperature Precipitation Wind Pressure Humidity
    00:00 +7°C° 0 mm 4 mps 767 mmHg 75%
    01:00 +7°C° 0 mm 5 mps 766 mmHg 75%
    02:00 +7°C° 0 mm 5 mps 766 mmHg 76%
    03:00 +7°C° 0 mm 6 mps 766 mmHg 76%
    04:00 +8°C° 0.2 mm 7 mps 765 mmHg 80%
    05:00 +7°C° 0.2 mm 8 mps 765 mmHg 84%
    06:00 +7°C° 0.2 mm 8 mps 764 mmHg 88%
    07:00 +7°C° 0.7 mm 9 mps 764 mmHg 89%
    08:00 +7°C° 0.7 mm 10 mps 763 mmHg 90%
    09:00 +8°C° 0.7 mm 11 mps 762 mmHg 91%
    10:00 +8°C° 1.2 mm 11 mps 762 mmHg 92%
    11:00 +8°C° 1.2 mm 11 mps 761 mmHg 94%
    12:00 +8°C° 1.2 mm 11 mps 761 mmHg 95%
    13:00 +9°C° 0.3 mm 10 mps 760 mmHg 95%
    14:00 +10°C° 0.3 mm 9 mps 760 mmHg 95%
    15:00 +11°C° 0.3 mm 8 mps 760 mmHg 96%
    16:00 +11°C° 0 mm 8 mps 759 mmHg 94%
    17:00 +10°C° 0 mm 7 mps 759 mmHg 92%
    18:00 +10°C° 0 mm 7 mps 759 mmHg 91%
    19:00 +10°C° 0.2 mm 7 mps 759 mmHg 92%
    20:00 +10°C° 0.2 mm 7 mps 759 mmHg 94%
    21:00 +10°C° 0.2 mm 7 mps 759 mmHg 95%
    22:00 +10°C° 0.3 mm 7 mps 758 mmHg 96%
    23:00 +10°C° 0.3 mm 6 mps 758 mmHg 97%
    Show more